1496300401.22,33583,17.81,74066.0,9.01,-30.83,-32.35,0,*74
1496300402.46,33584,17.81,74070.5,9.03,-30.61,-31.91,0,*70
1496300403.69,33585,17.81,74066.8,9.03,-30.39,-31.73,0,*70
1496300404.92,33586,17.81,74064.0,9.09,-30.89,-32.35,0,*73
1496300406.15,33587,17.81,74070.0,9.09,-31.05,-32.45,0,*70
1496300407.37,33588,17.81,74062.3,9.09,-31.17,-32.63,0,*78
1496300408.57,33589,17.81,74066.3,9.09,-31.05,-32.57,0,*7D
1496300409.83,33590,17.81,74064.3,9.11,-30.67,-31.95,0,*74
1496300411.08,33591,17.81,74074.3,9.13,-30.77,-32.19,0,*71
1496300412.36,33592,17.81,74074.5,9.15,-30.17,-31.39,0,*73
1496300413.6,33593,17.81,74072.0,9.15,-30.61,-32.01,0,*7B
1496300414.81,33594,17.81,74078.3,9.17,-31.29,-32.69,0,*7D
1496300416.03,33595,17.81,74084.8,9.17,-30.01,-31.29,0,*70
1496300417.28,33596,17.81,74086.5,9.19,-30.55,-31.79,0,*79
1496300418.51,33597,17.81,74090.0,9.19,-29.67,-31.05,0,*7A
1496300419.76,33598,17.81,74090.8,9.21,-31.51,-32.79,0,*7A
1496300420.99,33599,17.81,74090.3,9.21,-32.51,-33.89,0,*76
1496300422.18,33600,17.81,74086.0,9.21,-32.91,-34.25,0,*78
1496300423.44,33601,17.81,74088.5,9.21,-32.07,-33.27,0,*73
1496300424.63,33602,17.81,74086.3,9.21,-31.01,-32.35,0,*77
1496300425.88,33603,17.81,74084.5,9.23,-29.61,-30.95,0,*73
1496300427.11,33604,17.81,74080.5,9.23,-28.85,-30.11,0,*73
1496300428.36,33605,17.81,74078.0,9.25,-28.79,-30.01,0,*76
1496300429.62,33606,17.81,74074.3,9.27,-28.15,-29.35,0,*72
1496300430.84,33607,17.81,74072.5,9.33,-28.25,-29.61,0,*74
1496300432.06,33608,17.81,74076.3,9.37,-30.01,-31.29,0,*75
1496300433.3,33609,17.81,74082.3,9.37,-28.47,-29.73,0,*79
1496300434.53,33610,17.81,74086.0,9.41,-28.15,-29.45,0,*72
1496300435.72,33611,17.81,74090.8,9.43,-27.89,-29.07,0,*7D
1496300436.97,33612,17.81,74088.3,9.45,-32.79,-34.25,0,*7F
1496300438.2,33613,17.81,74094.3,9.43,-30.67,-32.19,0,*7C
1496300439.46,33614,17.81,74100.8,9.43,-31.73,-33.27,0,*73
1496300440.71,33615,17.81,74096.3,9.41,-33.61,-35.17,0,*74
1496300441.93,33616,17.81,74096.8,9.39,-33.21,-34.59,0,*77
1496300443.19,33617,17.81,74092.5,9.39,-33.61,-35.23,0,*7E
1496300444.43,33618,17.81,74088.8,9.35,-33.15,-34.83,0,*75
1496300445.65,33619,17.81,74088.0,9.33,-32.97,-34.59,0,*7E
1496300446.87,33620,17.81,74084.3,9.33,-32.79,-34.25,0,*7F
1496300448.1,33621,17.81,74084.5,9.33,-33.15,-34.65,0,*71
1496300449.32,33622,17.81,74062.8,9.31,-34.07,-35.59,0,*7A
1496300450.56,33623,17.81,74060.3,9.31,-32.45,-33.95,0,*7D
1496300451.83,33624,17.81,74066.8,9.27,-31.23,-32.51,0,*77
1496300453.06,33625,17.81,74056.5,9.31,-30.39,-31.67,0,*7D
1496300454.26,33626,17.81,74056.5,9.33,-31.01,-32.39,0,*7E
1496300455.5,33627,17.81,74060.0,9.35,-30.45,-31.91,0,*79
1496300456.78,33628,17.81,74070.8,9.35,-29.89,-31.23,0,*77
1496300458.01,33629,17.81,74078.0,9.35,-29.61,-31.01,0,*70
1496300459.23,33630,17.81,74074.0,9.39,-30.23,-31.45,0,*7A
1496300460.45,33631,17.81,74070.8,9.39,-29.07,-30.45,0,*74
1496300461.68,33632,17.81,74070.5,9.41,-28.85,-30.23,0,*73
1496300462.94,33633,17.81,74080.0,9.43,-28.59,-30.01,0,*71
1496300464.23,33634,17.81,74084.3,9.45,-31.23,-32.75,0,*74
1496300465.45,33635,17.81,74088.5,9.47,-29.17,-30.45,0,*78
1496300466.64,33636,17.81,74094.8,9.47,-30.11,-31.67,0,*74
1496300467.86,33637,17.81,74090.3,9.47,-32.69,-34.31,0,*7E
1496300469.12,33638,17.81,74082.3,9.47,-30.73,-32.19,0,*74
1496300470.32,33639,17.81,74072.5,9.47,-29.83,-31.33,0,*79
1496300471.58,33640,17.81,74086.0,9.49,-30.55,-31.85,0,*77
1496300472.83,33641,17.81,74096.0,9.49,-30.45,-31.85,0,*77
1496300474.05,33642,17.81,74102.3,9.49,-30.11,-31.33,0,*78
1496300475.26,33643,17.81,74104.5,9.55,-30.45,-31.73,0,*71
1496300476.54,33644,17.81,74104.3,9.49,-29.89,-31.11,0,*77
1496300477.77,33645,17.81,74104.0,9.53,-30.83,-32.35,0,*7A
1496300479.01,33646,17.81,74090.8,9.55,-31.51,-32.97,0,*79
1496300480.25,33647,17.81,74072.5,9.55,-30.61,-32.07,0,*73
1496300481.48,33648,17.81,74072.8,9.55,-31.91,-33.67,0,*75
1496300482.7,33649,17.81,74064.8,9.53,-32.69,-34.25,0,*77
1496300483.92,33650,17.81,74050.8,9.53,-32.51,-34.13,0,*71
1496300485.19,33651,17.81,74032.8,9.49,-33.61,-35.23,0,*7B
1496300486.44,33652,17.81,74038.0,9.49,-32.69,-34.31,0,*73
1496300487.67,33653,17.81,74050.3,9.45,-33.67,-35.29,0,*79
1496300488.92,33654,17.81,74054.5,9.45,-32.29,-33.67,0,*79
1496300490.15,33655,17.81,74056.0,9.47,-30.27,-31.51,0,*71
1496300491.34,33656,17.81,74068.0,9.47,-30.23,-31.67,0,*73
1496300492.58,33657,17.81,74076.3,9.47,-30.39,-31.95,0,*74
1496300493.81,33658,17.88,74080.0,9.47,-34.41,-36.25,0,*7C
1496300495.06,33659,17.81,74070.8,9.45,-34.19,-35.71,0,*70
1496300496.32,33660,17.81,74066.3,9.41,-34.41,-35.95,0,*79
1496300497.58,33661,17.81,74046.3,9.41,-31.11,-32.51,0,*77
1496300498.84,33662,17.81,74050.5,9.41,-30.83,-32.29,0,*71
1496300500.09,33663,17.81,74064.0,9.41,-33.31,-34.89,0,*76
1496300501.34,33664,17.81,74072.5,9.43,-31.85,-33.09,0,*71
1496300502.6,33665,17.81,74082.3,9.43,-31.57,-32.97,0,*79
1496300503.82,33666,17.81,74080.5,9.43,-31.05,-32.45,0,*72
1496300505.02,33667,17.81,74082.3,9.43,-31.05,-32.39,0,*78
1496300506.23,33668,17.81,74096.5,9.43,-29.95,-31.05,0,*7B
1496300507.45,33669,17.81,74088.3,9.47,-30.17,-32.13,0,*78
1496300508.65,33670,17.81,74092.5,9.47,-31.79,-33.03,0,*79
1496300509.9,33671,17.81,74096.0,9.45,-30.11,-31.39,0,*7E
1496300511.13,33672,17.81,74096.3,9.47,-29.23,-30.55,0,*7D
1496300512.36,33673,17.81,74098.5,9.53,-29.45,-30.67,0,*78
1496300513.61,33674,17.88,74102.0,9.53,-30.33,-31.61,0,*71
1496300514.82,33675,17.81,74106.0,9.55,-29.61,-30.83,0,*74
1496300516.03,33676,17.81,74104.3,9.55,-29.83,-31.17,0,*77
1496300517.3,33677,17.88,74102.5,9.57,-32.45,-34.01,0,*76
1496300518.53,33678,17.81,74096.0,9.55,-34.59,-36.13,0,*71
1496300519.78,33679,17.81,74092.3,9.53,-34.89,-36.49,0,*74
1496300520.98,33680,17.88,74094.5,9.47,-34.13,-35.71,0,*7C
1496300522.21,33681,17.88,74096.5,9.45,-34.41,-35.89,0,*7F
1496300523.44,33682,17.81,74092.0,9.45,-34.41,-36.07,0,*79
1496300524.65,33683,17.81,74092.3,9.43,-33.83,-35.29,0,*78
1496300525.93,33684,17.81,74090.0,9.41,-33.73,-35.65,0,*7A
1496300527.17,33685,17.88,74090.0,9.39,-34.47,-36.01,0,*75
1496300528.4,33686,17.81,74086.3,9.37,-34.59,-36.25,0,*71
1496300529.65,33687,17.81,74084.3,9.35,-34.19,-35.71,0,*74
1496300530.88,33688,17.81,74086.8,9.33,-34.65,-36.31,0,*71
1496300532.13,33689,17.88,74084.0,9.31,-34.71,-36.37,0,*71
1496300533.37,33690,17.81,74084.8,9.27,-34.47,-36.01,0,*7E
1496300534.65,33691,17.88,74084.8,9.27,-34.19,-35.83,0,*7D
1496300535.9,33692,17.81,74080.0,9.25,-34.53,-36.37,0,*7E
1496300537.15,33693,17.88,74072.0,9.23,-33.43,-35.17,0,*7E
1496300538.38,33694,17.81,74060.8,9.23,-33.67,-35.17,0,*7F
1496300539.6,33695,17.88,74064.5,9.23,-32.35,-33.67,0,*79
1496300540.85,33696,17.81,74060.0,9.23,-32.91,-34.53,0,*74
1496300542.12,33697,17.88,74066.3,9.23,-33.43,-34.83,0,*76
1496300543.34,33698,17.81,74068.3,9.21,-33.61,-35.01,0,*70
1496300544.57,33699,17.81,74074.3,9.21,-32.63,-34.07,0,*75
1496300545.82,33700,17.88,74076.8,9.21,-31.91,-33.27,0,*7F
1496300547.05,33701,17.81,74072.5,9.21,-32.75,-34.25,0,*72
1496300548.31,33702,17.88,74078.5,9.23,-32.63,-34.19,0,*7B
1496300549.57,33703,17.88,74070.5,9.23,-31.11,-32.35,0,*74
1496300550.79,33704,17.88,74072.3,9.25,-30.01,-31.29,0,*7B
1496300552.04,33705,17.88,74078.8,9.27,-30.73,-32.13,0,*77
1496300553.32,33706,17.88,74082.8,9.27,-30.77,-31.95,0,*7D
1496300554.54,33707,17.81,74086.0,9.31,-32.23,-33.37,0,*72
1496300555.77,33708,17.88,74100.8,9.33,-30.05,-31.17,0,*79
1496300557.04,33709,17.81,74100.0,9.35,-29.89,-31.11,0,*74
1496300558.29,33710,17.88,74104.5,9.35,-31.33,-32.45,0,*76
1496300559.51,33711,17.81,74108.0,9.37,-30.23,-31.51,0,*73
1496300560.75,33712,17.81,74102.5,9.37,-32.75,-34.35,0,*76
1496300561.97,33713,17.81,74098.5,9.37,-33.21,-34.53,0,*77
1496300563.19,33714,17.88,74102.3,9.37,-33.27,-34.71,0,*76
1496300564.44,33715,17.88,74100.0,9.35,-33.49,-35.17,0,*7C
1496300565.64,33716,17.81,74092.0,9.33,-33.55,-35.01,0,*73
1496300566.89,33717,17.88,74090.5,9.33,-33.43,-34.95,0,*79
1496300568.14,33718,17.81,74082.3,9.33,-34.01,-35.65,0,*79
1496300569.39,33719,17.88,74082.8,9.27,-34.89,-36.61,0,*7A
1496300570.63,33720,17.81,74078.5,9.27,-34.47,-36.01,0,*74
1496300571.9,33721,17.88,74082.8,9.23,-34.35,-35.89,0,*77
1496300573.13,33722,17.88,74086.3,9.23,-34.07,-35.71,0,*72
1496300574.33,33723,17.81,74068.8,9.21,-33.15,-34.77,0,*72
1496300575.55,33724,17.81,74076.0,9.19,-34.77,-36.19,0,*77
1496300576.84,33725,17.88,74068.5,9.19,-33.73,-35.53,0,*78
1496300578.09,33726,17.88,74074.5,9.19,-33.15,-34.65,0,*7F
1496300579.37,33727,17.88,74078.3,9.19,-33.73,-35.35,0,*7A
1496300580.65,33728,17.88,74076.8,9.15,-34.53,-36.13,0,*7B
1496300581.9,33729,17.88,74070.3,9.15,-35.77,-37.51,0,*7A
1496300583.18,33730,17.88,74056.5,9.11,-38.23,-40.21,0,*7D
1496300584.43,33731,17.88,74072.3,9.05,-39.79,-41.99,0,*75
1496300585.69,33732,17.88,74074.3,9.01,-41.55,-43.35,0,*77
1496300586.93,33733,17.88,74054.5,8.93,-37.57,-39.53,0,*72
1496300588.19,33734,17.81,74064.5,8.93,-35.65,-37.39,0,*74
1496300589.44,33735,17.88,74072.5,8.91,-35.83,-37.69,0,*7A
1496300590.66,33736,17.88,74044.8,8.89,-36.07,-37.75,0,*72
1496300591.91,33737,17.88,74068.8,8.89,-35.29,-36.91,0,*77
1496300593.16,33738,17.88,74078.3,8.85,-36.19,-38.11,0,*72
1496300594.38,33739,17.88,74080.5,8.81,-37.33,-38.85,0,*73
1496300595.6,33740,17.88,74076.5,8.79,-35.41,-37.03,0,*7C
1496300596.8,33741,17.88,74086.3,8.79,-36.19,-37.75,0,*72
1496300598.03,33742,17.88,74084.0,8.77,-37.03,-38.73,0,*7C
1496300599.27,33743,17.88,74088.0,8.73,-40.21,-42.19,0,*78
1496300600.53,33744,17.88,74086.0,8.69,-35.95,-37.39,0,*79
1496300601.73,33745,17.88,74084.8,8.69,-35.89,-37.27,0,*7A
1496300603.0,33746,17.88,74096.5,8.67,-37.63,-39.29,0,*71
1496300604.26,33747,17.88,74094.5,8.63,-36.85,-38.23,0,*76
1496300605.52,33748,17.88,74072.3,8.63,-34.47,-36.13,0,*78
1496300606.78,33749,17.81,74052.8,8.63,-34.13,-35.83,0,*72
1496300608.02,33750,17.88,74046.0,8.63,-35.01,-36.55,0,*70
1496300609.28,33751,17.81,74054.3,8.59,-33.09,-34.47,0,*77
1496300610.54,33752,17.88,74058.5,8.65,-30.73,-31.95,0,*7F
1496300611.76,33753,17.88,74058.0,8.65,-32.35,-33.77,0,*70
1496300613.02,33754,17.88,74076.0,8.69,-32.19,-33.43,0,*72
1496300614.25,33755,17.88,74078.5,8.69,-30.95,-32.23,0,*72
1496300615.5,33756,17.88,74084.5,8.73,-29.35,-30.55,0,*7B
1496300616.78,33757,17.88,74088.8,8.77,-31.51,-32.79,0,*79
1496300618.04,33758,17.88,74094.8,8.77,-30.77,-32.01,0,*7C
1496300619.29,33759,17.88,74090.5,8.79,-30.73,-32.07,0,*71
1496300620.55,33760,17.88,74086.5,8.81,-31.45,-32.75,0,*7D
1496300621.75,33761,17.88,74090.5,8.87,-30.27,-31.67,0,*7F
1496300622.97,33762,17.88,74092.0,8.87,-31.23,-32.57,0,*79
1496300624.16,33763,17.88,74092.0,8.87,-30.83,-32.13,0,*73
1496300625.41,33764,17.88,74076.5,8.89,-30.89,-32.13,0,*70
1496300626.66,33765,17.88,74072.0,8.93,-31.11,-32.39,0,*72
1496300627.91,33766,17.88,74072.3,8.93,-32.75,-34.13,0,*7E
1496300629.15,33767,17.88,74084.3,8.93,-32.35,-33.77,0,*7E
1496300630.38,33768,17.88,74080.5,8.95,-31.39,-32.69,0,*76
1496300631.6,33769,17.88,74066.3,8.95,-29.89,-31.05,0,*7C
1496300632.88,33770,17.88,74064.3,8.97,-28.91,-30.01,0,*7B
1496300634.16,33771,17.88,74080.8,9.05,-28.25,-29.35,0,*70
1496300635.4,33772,17.88,74092.0,9.05,-28.85,-30.05,0,*72
1496300636.63,33773,17.88,74096.5,9.09,-30.67,-31.91,0,*76
1496300637.84,33774,17.88,74100.8,9.09,-31.79,-33.21,0,*76
1496300639.11,33775,17.88,74102.3,9.11,-32.79,-34.31,0,*7B
1496300640.35,33776,17.88,74098.5,9.09,-33.03,-34.65,0,*7C
1496300641.59,33777,17.88,74090.3,9.05,-33.95,-35.65,0,*7F
1496300642.84,33778,17.88,74066.3,9.05,-34.35,-36.01,0,*7C
1496300644.09,33779,17.81,74066.8,9.01,-35.29,-36.79,0,*7A
1496300645.35,33780,17.88,74060.0,9.01,-34.19,-36.01,0,*71
1496300646.61,33781,17.88,74066.8,8.97,-34.83,-36.55,0,*7C
1496300647.87,33782,17.88,74090.5,8.97,-34.95,-36.55,0,*78
1496300649.1,33783,17.88,74090.8,8.95,-34.31,-36.01,0,*74
1496300650.35,33784,17.88,74096.5,8.93,-34.77,-36.37,0,*72
1496300651.6,33785,17.88,74084.5,8.91,-34.01,-35.53,0,*71
1496300652.82,33786,17.88,74076.3,8.91,-33.43,-35.13,0,*77
1496300654.08,33787,17.88,74086.0,8.89,-34.83,-36.43,0,*72
1496300655.33,33788,17.88,74088.8,8.89,-34.83,-36.43,0,*7D
1496300656.58,33789,17.88,74088.5,8.87,-32.45,-34.01,0,*7A
1496300657.83,33790,17.88,74086.8,8.87,-31.23,-32.79,0,*78
1496300659.07,33791,17.88,74098.8,8.91,-33.61,-35.35,0,*75
1496300660.3,33792,17.88,74082.5,8.89,-35.17,-36.73,0,*79
1496300661.52,33793,17.88,74084.8,8.89,-33.55,-35.13,0,*7D
1496300662.72,33794,17.88,74086.3,8.87,-33.21,-34.77,0,*74
1496300663.91,33795,17.88,74086.0,8.87,-32.57,-34.07,0,*72
1496300665.14,33796,17.88,74084.5,8.87,-34.83,-36.31,0,*79
1496300666.4,33797,17.88,74080.8,8.85,-34.35,-35.77,0,*76
1496300667.65,33798,17.88,74082.0,8.85,-31.39,-32.51,0,*73
1496300668.9,33799,17.88,74080.3,8.87,-30.01,-31.23,0,*7C
1496300670.15,33800,17.88,74086.3,8.89,-31.39,-32.91,0,*7D
1496300671.37,33801,17.88,74084.0,8.91,-31.01,-32.19,0,*7E
1496300672.63,33802,17.88,74084.8,8.93,-31.11,-32.39,0,*7C
1496300673.85,33803,17.88,74082.0,8.95,-33.09,-35.01,0,*7C
1496300675.06,33804,17.88,74088.8,8.95,-34.13,-35.77,0,*76
1496300676.33,33805,17.88,74088.0,8.93,-34.19,-35.53,0,*7D
1496300677.59,33806,17.88,74088.0,8.93,-34.35,-36.01,0,*74
1496300678.83,33807,17.88,74078.8,8.89,-35.53,-37.03,0,*7C
1496300680.05,33808,17.88,74080.0,8.89,-33.55,-35.17,0,*74
1496300681.25,33809,17.88,74088.5,8.87,-33.21,-34.77,0,*7F
1496300682.45,33810,17.88,74086.0,8.87,-33.37,-35.01,0,*70
1496300683.7,33811,17.88,74088.8,8.87,-33.73,-35.35,0,*76
1496300684.94,33812,17.88,74094.3,8.87,-33.09,-34.31,0,*7D
1496300686.16,33813,17.88,74090.0,8.87,-31.23,-32.57,0,*70
1496300687.36,33814,17.88,74086.3,8.91,-30.11,-31.17,0,*77
1496300688.64,33815,17.88,74094.0,8.93,-29.35,-30.39,0,*77
1496300689.87,33816,17.88,74094.8,8.95,-30.95,-32.51,0,*7C
1496300691.11,33817,17.88,74100.0,8.95,-30.55,-31.85,0,*7B
1496300692.38,33818,17.88,74098.5,8.97,-31.39,-32.79,0,*7D
1496300693.66,33819,17.88,74102.0,9.01,-31.85,-33.09,0,*73
1496300694.88,33820,17.88,74100.0,9.01,-31.67,-33.15,0,*78
1496300696.13,33821,17.88,74102.5,9.01,-30.23,-31.85,0,*73
1496300697.4,33822,17.88,74102.8,9.01,-30.61,-32.07,0,*7F
1496300698.65,33823,17.88,74104.3,9.05,-30.33,-31.61,0,*7E
1496300699.87,33824,17.88,74100.5,9.09,-33.15,-34.65,0,*73
1496300701.12,33825,17.88,74106.5,9.05,-31.95,-33.21,0,*73
1496300702.31,33826,17.88,74100.3,9.03,-32.23,-33.67,0,*7A
1496300703.55,33827,17.88,74108.3,9.05,-32.91,-34.31,0,*70
1496300704.79,33828,17.88,74112.8,9.05,-34.89,-36.37,0,*74
1496300706.01,33829,17.88,74118.3,9.01,-33.95,-35.47,0,*7F
1496300707.25,33830,17.88,74108.3,9.01,-34.77,-36.43,0,*7B
1496300708.5,33831,17.88,74098.0,8.97,-35.23,-36.67,0,*72
1496300709.77,33832,17.88,74094.3,8.97,-35.23,-36.91,0,*78
1496300711.01,33833,17.88,74092.0,8.93,-36.19,-37.69,0,*71
1496300712.23,33834,17.88,74090.0,8.93,-35.13,-36.67,0,*70
1496300713.44,33835,17.88,74096.8,8.91,-34.41,-35.89,0,*76
1496300714.67,33836,17.88,74104.8,8.89,-34.59,-36.31,0,*75
1496300715.9,33837,17.88,74100.0,8.89,-34.07,-35.59,0,*72
1496300717.15,33838,17.81,74094.5,8.87,-33.89,-35.53,0,*78
1496300718.4,33839,17.88,74094.0,8.85,-34.01,-35.59,0,*76
1496300719.68,33840,17.81,74082.8,8.85,-34.65,-36.13,0,*77
1496300720.95,33841,17.88,74086.0,8.85,-33.43,-35.23,0,*75
1496300722.23,33842,17.88,74078.0,8.81,-34.01,-35.53,0,*74
1496300723.47,33843,17.88,74082.0,8.81,-34.77,-36.55,0,*71
1496300724.73,33844,17.88,74090.8,8.81,-34.31,-36.01,0,*75
1496300725.99,33845,17.88,74088.0,8.79,-34.01,-35.53,0,*74
1496300727.22,33846,17.88,74088.8,8.79,-33.77,-35.47,0,*74
1496300728.45,33847,17.88,74090.5,8.75,-34.25,-35.89,0,*7B
1496300729.71,33848,17.88,74084.5,8.75,-33.89,-35.77,0,*74
1496300730.96,33849,17.88,74088.3,8.75,-34.19,-35.77,0,*7B
1496300732.24,33850,17.88,74086.0,8.75,-34.01,-35.53,0,*7C
1496300733.46,33851,17.88,74090.5,8.75,-34.41,-36.07,0,*7B
1496300734.71,33852,17.88,74090.8,8.73,-33.31,-34.83,0,*70
1496300735.94,33853,17.88,74086.0,8.75,-34.59,-36.31,0,*75
1496300737.2,33854,17.88,74084.5,8.75,-34.65,-36.31,0,*7D
1496300738.47,33855,17.88,74090.5,8.75,-33.49,-34.83,0,*7E
1496300739.68,33856,17.88,74086.5,8.73,-32.97,-34.41,0,*77
1496300740.94,33857,17.88,74080.3,8.73,-32.19,-33.43,0,*75
1496300742.16,33858,17.88,74074.5,8.75,-30.67,-32.01,0,*70
1496300743.38,33859,17.88,74072.3,8.79,-30.05,-31.33,0,*7B
1496300744.61,33860,17.88,74074.0,8.79,-31.51,-32.91,0,*7A
1496300745.86,33861,17.88,74080.5,8.81,-30.23,-31.51,0,*77
1496300747.1,33862,17.88,74084.8,8.85,-30.23,-31.57,0,*76
1496300748.35,33863,17.88,74080.8,8.89,-30.33,-31.51,0,*7C
1496300749.57,33864,17.88,74084.8,8.91,-30.05,-31.33,0,*73
1496300750.84,33865,17.88,74084.3,8.93,-29.17,-30.55,0,*7A
1496300752.04,33866,17.88,74082.3,8.95,-30.67,-32.01,0,*73
1496300753.27,33867,17.88,74086.0,8.99,-29.95,-31.23,0,*78
1496300754.51,33868,17.88,74078.8,8.97,-31.67,-32.97,0,*71
1496300755.73,33869,17.88,74078.8,8.99,-32.07,-33.21,0,*77
1496300756.94,33870,17.88,74086.8,8.99,-29.61,-30.83,0,*7E
1496300758.16,33871,17.88,74090.3,9.03,-29.01,-30.27,0,*75
1496300759.39,33872,17.88,74092.0,9.03,-29.89,-31.29,0,*79
1496300760.61,33873,17.88,74096.0,9.09,-30.45,-31.73,0,*75
1496300761.86,33874,17.88,74098.5,9.11,-30.67,-31.91,0,*77
1496300763.09,33875,17.81,74096.3,9.13,-30.77,-32.01,0,*7F
1496300764.31,33876,17.88,74098.0,9.13,-29.45,-30.67,0,*77
1496300765.57,33877,17.88,74102.8,9.15,-29.57,-30.89,0,*73
1496300766.77,33878,17.88,74096.8,9.17,-28.97,-30.23,0,*73
1496300768.02,33879,17.88,74098.0,9.19,-31.01,-32.45,0,*79
1496300769.26,33880,17.88,74102.5,9.19,-30.33,-31.57,0,*7F
1496300770.46,33881,17.88,74110.8,9.21,-32.39,-34.07,0,*7D
1496300771.74,33882,17.88,74108.3,9.19,-31.95,-33.49,0,*7D
1496300772.96,33883,17.88,74104.0,9.19,-32.13,-33.55,0,*7C
1496300774.21,33884,17.88,74100.3,9.21,-31.51,-32.79,0,*7A
1496300775.43,33885,17.88,74102.0,9.21,-32.35,-33.73,0,*71
1496300776.69,33886,17.88,74100.0,9.21,-31.57,-32.79,0,*7E
1496300777.92,33887,17.88,74096.8,9.21,-32.23,-33.31,0,*72
1496300779.19,33888,17.88,74088.8,9.19,-32.85,-34.31,0,*7D
1496300780.44,33889,17.88,74102.0,9.21,-31.57,-32.79,0,*71
1496300781.68,33890,17.88,74100.8,9.21,-31.57,-32.91,0,*7F
1496300782.93,33891,17.88,74110.3,9.23,-33.61,-35.29,0,*7F
1496300784.17,33892,17.88,74106.8,9.19,-34.13,-35.77,0,*7C
1496300785.37,33893,17.88,74106.3,9.17,-33.95,-35.59,0,*76
1496300786.64,33894,17.88,74104.8,9.15,-34.01,-35.65,0,*76
1496300787.88,33895,17.88,74102.3,9.13,-34.19,-35.89,0,*7A
1496300789.14,33896,17.88,74106.5,9.11,-35.77,-37.39,0,*7B
1496300790.41,33897,17.88,74114.0,9.05,-35.07,-36.61,0,*74
1496300791.67,33898,17.88,74104.3,9.05,-33.61,-35.23,0,*78
1496300792.94,33899,17.88,74102.5,9.05,-33.09,-34.83,0,*7C
1496300794.16,33900,17.88,74100.0,9.03,-32.23,-33.77,0,*7E
1496300795.35,33901,17.88,74098.3,9.03,-32.23,-33.67,0,*7E
1496300796.54,33902,17.88,74096.3,9.03,-31.17,-32.57,0,*7B
1496300797.81,33903,17.88,74096.8,9.05,-31.39,-32.85,0,*7F
1496300799.01,33904,17.88,74090.8,9.09,-32.39,-33.83,0,*70
1496300800.25,33905,17.88,74086.8,9.09,-29.95,-31.23,0,*75
1496300801.47,33906,17.88,74092.3,9.13,-28.43,-29.57,0,*7D
1496300802.7,33907,17.88,74092.8,9.13,-29.23,-30.51,0,*75
1496300803.93,33908,17.88,74090.3,9.17,-30.77,-32.35,0,*77
1496300805.19,33909,17.88,74088.0,9.19,-30.89,-32.39,0,*75
1496300806.43,33910,17.88,74094.3,9.21,-30.55,-31.95,0,*72
1496300807.66,33911,17.88,74096.0,9.21,-30.77,-32.01,0,*7D
1496300808.86,33912,17.88,74098.8,9.21,-30.11,-31.33,0,*7C
1496300810.05,33913,17.88,74096.5,9.25,-30.45,-31.79,0,*76
1496300811.3,33914,17.88,74096.0,9.23,-31.33,-32.63,0,*7F
1496300812.49,33915,17.88,74098.8,9.25,-31.29,-32.57,0,*74
1496300813.74,33916,17.88,74100.0,9.23,-31.29,-32.63,0,*76
1496300814.94,33917,17.88,74102.3,9.25,-30.27,-31.67,0,*79
1496300816.21,33918,17.88,74100.0,9.25,-29.51,-30.89,0,*7E
1496300817.47,33919,17.88,74098.3,9.31,-29.51,-30.83,0,*70
1496300818.69,33920,17.88,74098.8,9.33,-30.05,-31.33,0,*7B
1496300819.94,33921,17.88,74098.3,9.33,-30.61,-31.91,0,*70
1496300821.15,33922,17.88,74096.3,9.35,-32.35,-33.83,0,*77
1496300822.4,33923,17.81,74096.3,9.33,-32.19,-33.49,0,*78
1496300823.68,33924,17.88,74096.8,9.35,-31.85,-33.27,0,*77
1496300824.92,33925,17.81,74098.0,9.35,-30.17,-31.67,0,*7A
1496300826.17,33926,17.88,74106.8,9.35,-31.01,-32.19,0,*75
1496300827.4,33927,17.88,74106.3,9.35,-29.23,-30.45,0,*76
1496300828.64,33928,17.88,74104.5,9.39,-30.05,-31.33,0,*79
1496300829.88,33929,17.88,74100.8,9.39,-30.95,-32.35,0,*74
1496300831.09,33930,17.88,74106.0,9.39,-32.91,-34.59,0,*76
1496300832.33,33931,17.88,74108.8,9.37,-34.71,-36.25,0,*78
1496300833.57,33932,17.88,74110.8,9.37,-33.49,-35.07,0,*74
1496300834.8,33933,17.88,74108.3,9.35,-33.67,-35.29,0,*77
1496300836.03,33934,17.88,74108.3,9.33,-33.09,-34.59,0,*78
1496300837.27,33935,17.88,74100.3,9.33,-31.51,-32.63,0,*79
1496300838.5,33936,17.88,74100.0,9.33,-32.19,-33.55,0,*71
1496300839.72,33937,17.88,74094.8,9.33,-31.17,-32.63,0,*79
1496300840.97,33938,17.88,74096.3,9.35,-31.17,-32.75,0,*77
1496300842.2,33939,17.88,74090.5,9.33,-30.95,-32.39,0,*73
1496300843.43,33940,17.88,74090.3,9.35,-29.45,-30.67,0,*77
1496300844.66,33941,17.88,74094.3,9.35,-28.37,-29.57,0,*79
1496300845.94,33942,17.88,74090.8,9.39,-29.39,-30.89,0,*72
1496300847.22,33943,17.88,74098.0,9.41,-29.17,-30.55,0,*71
1496300848.43,33944,17.88,74098.0,9.43,-28.97,-30.45,0,*7C
1496300849.71,33945,17.88,74098.8,9.45,-29.13,-30.77,0,*77
1496300850.94,33946,17.88,74096.8,9.47,-28.31,-30.89,0,*76
1496300852.22,33947,17.88,74098.3,9.49,-26.13,-29.51,0,*7A
1496300853.44,33948,17.88,74100.0,9.53,-25.23,-29.79,0,*74
1496300854.7,33949,17.88,74096.3,9.53,-25.29,-30.05,0,*7C
1496300855.96,33950,17.88,74094.0,9.57,-26.49,-31.39,0,*7B
1496300857.18,33951,17.88,74088.3,9.55,-26.87,-31.39,0,*7A
1496300858.45,33952,17.88,74090.5,9.57,-28.25,-32.29,0,*7F
1496300859.68,33953,17.88,74092.8,9.57,-27.51,-30.83,0,*70
1496300860.89,33954,17.88,74100.5,9.59,-28.37,-31.01,0,*7D
1496300862.15,33955,17.88,74102.3,9.61,-28.69,-30.89,0,*7D
1496300863.4,33956,17.88,74104.8,9.61,-30.23,-32.19,0,*72
1496300864.65,33957,17.88,74106.0,9.61,-28.63,-30.23,0,*75
1496300865.9,33958,17.88,74104.5,9.63,-28.79,-30.39,0,*78
1496300867.13,33959,17.88,74106.5,9.67,-28.21,-29.57,0,*70
1496300868.41,33960,17.88,74108.3,9.69,-28.21,-29.51,0,*72
1496300869.65,33961,17.88,74108.3,9.71,-28.09,-29.29,0,*7F
1496300870.86,33962,17.88,74114.5,9.77,-27.77,-29.07,0,*70
1496300872.09,33963,17.88,74108.8,9.79,-27.67,-28.91,0,*70
1496300873.32,33964,17.88,74110.0,9.79,-28.91,-30.27,0,*75
1496300874.57,33965,17.88,74110.5,9.81,-30.77,-32.35,0,*73
1496300875.85,33966,17.88,74108.3,9.81,-31.91,-33.27,0,*7B
1496300877.08,33967,17.88,74110.5,9.79,-32.39,-34.01,0,*7F
1496300878.33,33968,17.88,74110.8,9.77,-32.85,-34.47,0,*7B
1496300879.56,33969,17.88,74106.3,9.73,-34.71,-36.43,0,*75
1496300880.76,33970,17.88,74110.0,9.71,-34.89,-36.43,0,*78
1496300882.01,33971,17.88,74106.0,9.67,-35.23,-36.79,0,*76
1496300883.24,33972,17.88,74102.3,9.65,-34.13,-35.59,0,*74
1496300884.48,33973,17.88,74096.3,9.63,-33.09,-34.83,0,*79
1496300885.73,33974,17.88,74096.8,9.63,-33.43,-35.07,0,*7D
1496300886.96,33975,17.88,74100.8,9.61,-34.07,-35.59,0,*72
1496300888.21,33976,17.88,74098.3,9.59,-32.19,-33.77,0,*79
1496300889.44,33977,17.88,74104.3,9.59,-31.61,-32.91,0,*7D
1496300890.64,33978,17.88,74108.8,9.59,-30.27,-31.67,0,*7B
1496300891.88,33979,17.88,74110.0,9.61,-31.05,-32.45,0,*73
1496300893.13,33980,17.88,74108.3,9.61,-30.51,-31.79,0,*79
1496300894.42,33981,17.88,74108.8,9.61,-31.23,-32.79,0,*7F
1496300895.64,33982,17.88,74118.0,9.63,-32.01,-33.61,0,*75
1496300896.86,33983,17.88,74116.5,9.63,-32.01,-33.77,0,*73
1496300898.08,33984,17.88,74114.0,9.63,-33.89,-35.59,0,*7F
1496300899.31,33985,17.88,74112.5,9.59,-31.51,-32.91,0,*73
1496300900.58,33986,17.88,74112.3,9.61,-30.17,-31.73,0,*77
1496300901.84,33987,17.88,74110.5,9.61,-30.89,-32.51,0,*72
1496300903.08,33988,17.88,74110.0,9.63,-31.39,-32.97,0,*7F
1496300904.34,33989,17.88,74108.3,9.59,-33.73,-35.53,0,*74